STARLINK-11711 [DTC]

Last updated on Wed Jul 02 2025 00:02:07 GMT+0000 (Coordinated Universal Time)

1 64378U 25127J 25182.22501053 .00121055 00000+0 50534-3 0 9994 2 64378 43.0017 162.9648 0001624 206.7339 153.3450 15.84541242 4038
UTC large
Height (km)
Speed (km/s)
/
Latitude / Longitude
Inclination (degrees)
Orbital Period (minutes)
Azimuth
Elevation
Range (km)
Doppler Factor

Next 0 passes for location: London (51.5072 / 0.1276)

Sorry there are no passes over London.